Weather History for Fort Lauderdale, FL

Change the Weather History Date:

Thursday, November 22, 2012

  Actual Average Record
Temperature  
Mean Temperature 66 °F -  
Max Temperature 75 °F 80 °F 88 °F (1993)
Min Temperature 57 °F 63 °F 43 °F (1952)
Cooling Degree Days 1    
Growing Degree Days 16 (Base 50)    
Moisture  
Dew Point 50 °F    
Average Humidity 59    
Maximum Humidity 72    
Minimum Humidity 40    
Precipitation  
Precipitation 0.00 in - - ()
Sea Level Pressure  
Sea Level Pressure 30.06 in    
Wind  
Wind Speed 9 mph (NNW)    
Max Wind Speed 13 mph    
Max Gust Speed 23 mph    
Visibility 10 miles    
Events      
Averages and records for this station are not official NWS values.
T = Trace of Precipitation, MM = Missing Value Source: NWS Daily Summary

Daily Weather History Graph

Daily Weather History Graph

Search for Another Location

Airport:

Trip Planner

Search our weather history database for the weather conditions in past years. The results will help you decide how hot, cold, wet, or windy it might be!

Date:

Astronomy

Nov. 22, 2012 Rise Set
Actual Time 6:44 AM EST 5:28 PM EST
Civil Twilight 6:20 AM EST 5:53 PM EST
Nautical Twilight 5:51 AM EST 6:21 PM EST
Astronomical Twilight 5:24 AM EST 6:49 PM EST
Moon 1:48 PM EST (11/22) 1:31 AM EST (11/22)
Length of Visible Light 11h 33m
Length of Day
10h 44m
Waxing Gibbous, 71% of the Moon is Illuminated
Nov 22
Waxing Gibbous
Nov 28
Full
Dec 6
Last Quarter
Dec 13
New
Dec 20
First Quarter

Hourly Weather History & Observations

Time (EST) Temp. Dew Point Humidity Pressure Visibility Wind Dir Wind Speed Gust Speed Precip Events Conditions
12:53 AM 61.0 °F 51.1 °F 70% 30.04 in 10.0 mi NNW 9.2 mph 17.3 mph N/A   Clear
1:53 AM 60.1 °F 48.9 °F 67% 30.02 in 10.0 mi NNW 5.8 mph - N/A   Clear
2:53 AM 59.0 °F 46.9 °F 64% 30.01 in 10.0 mi NNW 9.2 mph 16.1 mph N/A   Clear
3:53 AM 59.0 °F 46.9 °F 64% 30.02 in 10.0 mi NNW 6.9 mph - N/A   Clear
4:53 AM 59.0 °F 48.0 °F 67% 30.01 in 10.0 mi NNW 9.2 mph - N/A   Clear
5:53 AM 59.0 °F 48.9 °F 69% 30.03 in 10.0 mi Variable 6.9 mph - N/A   Clear
6:53 AM 57.9 °F 48.9 °F 72% 30.04 in 10.0 mi NW 10.4 mph 19.6 mph N/A   Clear
7:53 AM 60.1 °F 48.9 °F 67% 30.06 in 10.0 mi NNW 9.2 mph 18.4 mph N/A   Clear
8:53 AM 63.0 °F 50.0 °F 63% 30.08 in 10.0 mi NW 10.4 mph 19.6 mph N/A   Clear
9:53 AM 66.9 °F 52.0 °F 59% 30.09 in 10.0 mi Variable 6.9 mph 17.3 mph N/A   Clear
10:53 AM 69.1 °F 53.1 °F 57% 30.08 in 10.0 mi NW 11.5 mph 17.3 mph N/A   Clear
11:53 AM 72.0 °F 54.0 °F 53% 30.06 in 10.0 mi NW 12.7 mph 19.6 mph N/A   Clear
12:53 PM 73.9 °F 54.0 °F 50% 30.03 in 10.0 mi NNW 10.4 mph 19.6 mph N/A   Partly Cloudy
1:53 PM 75.0 °F 53.1 °F 46% 30.02 in 10.0 mi NNW 10.4 mph 20.7 mph N/A   Partly Cloudy
2:53 PM 75.0 °F 51.1 °F 43% 30.01 in 10.0 mi NNW 10.4 mph 23.0 mph N/A   Clear
3:53 PM 73.9 °F 48.0 °F 40% 30.02 in 10.0 mi North 10.4 mph 18.4 mph N/A   Partly Cloudy
4:53 PM 71.1 °F 46.9 °F 42% 30.05 in 10.0 mi NNW 8.1 mph - N/A   Partly Cloudy
5:53 PM 68.0 °F 51.1 °F 55% 30.07 in 10.0 mi North 5.8 mph - N/A   Partly Cloudy
6:53 PM 66.0 °F 50.0 °F 56% 30.10 in 10.0 mi NNW 8.1 mph - N/A   Clear
7:53 PM 64.0 °F 48.0 °F 56% 30.11 in 10.0 mi NNW 8.1 mph - N/A   Clear
8:53 PM 62.1 °F 46.9 °F 58% 30.12 in 10.0 mi Variable 6.9 mph 16.1 mph N/A   Clear
9:53 PM 60.1 °F 48.9 °F 67% 30.12 in 10.0 mi NW 11.5 mph 16.1 mph N/A   Clear
10:53 PM 59.0 °F 48.9 °F 69% 30.12 in 10.0 mi NW 6.9 mph - N/A   Clear
11:53 PM 57.9 °F 48.9 °F 72% 30.11 in 10.0 mi NW 6.9 mph - N/A   Clear